Regional Weather Roundup
Issued by NWS

Home | Current Version | Previous Version | Text Only | Print | Product List | Glossary On
Versions: 1 2 3 4 5 6 7 8 9 10 11 12 13 14 15 16 17 18 19 20 21 22 23 24 25 26 27 28 29 30 31 32 33 34 35 36 37 38 39 40 41 42 43 44 45 46 47 48 49 50
000
ASCA44 KEWX 040420
RWRMX

LATIN AMERICA AND CARIBBEAN REGIONAL WEATHER ROUNDUP
NATIONAL WEATHER SERVICE AUSTIN/SAN ANTONIO TX
1000 PM CST SAT DEC 03 2016

NOTE: "FAIR" INDICATED FEW OR NO CLOUDS BELOW 12,000 FEET WITH NO
SIGNIFICANT WEATHER AND/OR OBSTRUCTIONS TO VISIBILITY.

BAJA CALIFORNIA

CITY           SKY/WX    TMP DP  RH WIND       PRES   REMARKS
LA PAZ         PTCLDY    59  50  72 CALM      29.94R
MEXICALI       CLEAR     57   9  14 W5        30.05R
S.J. DEL CABO  PTCLDY    63  39  42 W7        29.89
TIJUANA        CLEAR     52  32  46 CALM      30.08

NORTHWESTERN MEXICO

CITY           SKY/WX    TMP DP  RH WIND       PRES   REMARKS
CULIACAN       MOCLDY    61  55  82 N6        29.86S
HERMOSILLO     PTCLDY    54  50  87 CALM      29.95S
CD. JUAREZ     CLOUDY    45  37  76 CALM      29.95R
LOS MOCHIS     CLEAR     57  43  58 NW7       29.90R

NORTHEASTERN MEXICO

CITY           SKY/WX    TMP DP  RH WIND       PRES   REMARKS
CHIHUAHUA      MOCLDY    43  41  93 N5        29.99R WCI  40
MATAMOROS      RAIN      68  64  88 NW13      29.81
MONCLOVA         N/A    N/A N/A N/A MISG        N/A
MONTERREY      CLOUDY    63  61  94 CALM      29.84R FOG
REYNOSA          N/A    N/A N/A N/A MISG        N/A
SALTILLO       CLOUDY    57  54  88 CALM      29.98S
TORREON        PTCLDY    72  46  40 S6        29.84
CD. VICTORIA   CLOUDY    73  64  73 W10       29.82R

WESTERN MEXICO

CITY           SKY/WX    TMP DP  RH WIND       PRES   REMARKS
AGUASCALIENTES MOCLDY    57  48  72 S10       30.15R
COLIMA           N/A    N/A N/A N/A MISG        N/A
DEL BAJIO      PTCLDY    61  50  67 SW9       30.21R
GUADALAJARA    MOCLDY    59  54  82 CALM      30.08F
MAZATLAN       PTCLDY    68  63  83 N5        29.85S
P. VALLARTA    CLOUDY    77  72  83 W13       29.86S
URUAPAN        MOCLDY    63  57  82 CALM      30.15S
ZACATECAS      CLOUDY    52  45  76 S10       30.08F

CENTRAL MEXICO

CITY           SKY/WX    TMP DP  RH WIND       PRES   REMARKS
CUERNAVACA       N/A    N/A N/A N/A MISG        N/A
MEXICO CITY    CLEAR     63  46  55 SE10      30.24R
MORELIA        MOCLDY    63  52  67 S7        30.17S
POZA RICA        N/A    N/A N/A N/A MISG        N/A
QUERETARO      MOCLDY    61  48  63 W10       30.22R
S. LUIS POTOSI PTCLDY    64  43  45 N16       30.09
TAMPICO        MOCLDY    75  72  88 SE12      29.77  FOG
TOLUCA         PTCLDY    52  48  87 NW5       30.33

SOUTHERN MEXICO

CITY           SKY/WX    TMP DP  RH WIND       PRES   REMARKS
ACAPULCO       CLEAR     82  73  74 W6        29.87R
B. DE HUATULCO   N/A    N/A N/A N/A MISG        N/A
P. ESCONDIDO     N/A    N/A N/A N/A MISG        N/A
VERACRUZ       CLOUDY    79  75  89 SE5       29.79S

YUCATAN PENINSULA

CITY           SKY/WX    TMP DP  RH WIND       PRES   REMARKS
CAMPECHE         N/A    N/A N/A N/A MISG        N/A
CANCUN         PTCLDY    81  77  89 E8        29.94R
CHETUMAL         N/A    N/A N/A N/A MISG        N/A
CD. DEL CARMEN   N/A    N/A N/A N/A MISG        N/A
COZUMEL        PTCLDY    77  75  94 SE6       29.92R
MERIDA         CLEAR     81  70  69 SE8       29.89S
MINATITLAN       N/A    N/A N/A N/A MISG        N/A
TAPACHULA      PTCLDY    77  75  94 CALM      29.87S
TUX. GUTIERREZ CLEAR     70  61  73 CALM      29.92R
VILLAHERMOSA   PTCLDY    75  72  88 E7        29.83S

CENTRAL AMERICA

CITY           SKY/WX    TMP DP  RH WIND       PRES   REMARKS
MANAGUA        PTCLDY    77  72  83 CALM      29.86R

CARIBBEAN

CITY           SKY/WX    TMP DP  RH WIND       PRES   REMARKS
ARUBA          PTCLDY    82  75  78 E16       29.86F
CURACAO        PTCLDY    82  75  78 E14       29.92S
KINGSTON       MOCLDY    82  73  74 N8        29.92S
SAN JUAN       PTCLDY    79  75  89 CALM      29.97F
SANTO DOMINGO  PTCLDY    75  73  94 N5        29.94S
ST. CROIX      CLEAR     73  72  94 N6        29.97F
ST. MAARTEN    PTCLDY    79  73  83 E8        29.97S
ST. THOMAS     CLEAR     79  73  83 E5        29.96

$$




USA.gov is the U.S. government's official web portal to all federal, state and local government web resources and services.